Location: Poughquag
(41.6090°N, 73.6820°W)
Time: 03:44:34
(UTC-05:00)

A-11 Canister half - All Passes

Search period start: 05 December 2023 00:00
Search period end: 15 December 2023 00:00
Orbit: 1514 x 1686 km, 47.2° (Epoch: 05 December)

Date Brightness Start Highest point End Pass type
(mag) Time Alt. Az. Time Alt. Az. Time Alt. Az.
05 Dec - 00:48:06 10° WSW 00:57:45 85° NNW 01:07:50 10° ENE visible
05 Dec - 02:53:50 10° W 03:03:35 64° N 03:13:38 10° E visible
05 Dec - 04:59:23 10° WNW 05:09:27 85° NNE 05:19:41 10° ESE visible
05 Dec - 07:04:46 10° WNW 07:14:01 43° SW 07:23:19 10° SSE daylight
05 Dec - 22:21:59 10° SSW 22:30:27 39° SE 22:39:12 10° ENE night (unlit)
06 Dec - 00:25:09 10° WSW 00:34:46 88° NNW 00:44:48 10° ENE visible
06 Dec - 02:30:49 10° W 02:40:31 64° N 02:50:34 10° E visible
06 Dec - 04:36:24 10° WNW 04:46:26 83° NNE 04:56:39 10° ESE visible
06 Dec - 06:41:44 10° WNW 06:51:05 45° SW 07:00:31 10° SSE daylight
06 Dec - 08:52:32 10° WSW 08:54:10 10° WSW 08:55:48 10° SW daylight
06 Dec - 21:59:16 10° SSW 22:07:34 36° SE 22:16:08 10° ENE night (unlit)
07 Dec - 00:02:12 10° WSW 00:11:46 90° SSE 00:21:46 10° ENE visible
07 Dec - 02:07:48 10° W 02:17:28 64° N 02:27:30 10° ENE visible
07 Dec - 04:13:25 10° WNW 04:23:24 81° NNE 04:33:37 10° ESE visible
07 Dec - 06:18:41 10° WNW 06:28:08 48° SW 06:37:42 10° SSE visible
07 Dec - 08:28:07 10° WSW 08:31:19 12° WSW 08:34:32 10° SW daylight
07 Dec - 21:36:34 10° SSW 21:44:41 34° SE 21:53:02 10° ENE night (unlit)
07 Dec - 23:39:15 10° WSW 23:48:47 87° SSE 23:58:44 10° ENE night (unlit)
08 Dec - 01:44:47 10° W 01:54:25 64° N 02:04:25 10° ENE visible
08 Dec - 03:50:25 10° WNW 04:00:23 79° NNE 04:10:35 10° ESE visible
08 Dec - 05:55:40 10° WNW 06:05:12 51° SW 06:14:51 10° SSE visible
08 Dec - 08:04:16 10° W 08:08:27 13° WSW 08:12:40 10° SSW daylight
08 Dec - 21:13:54 10° S 21:21:48 32° SE 21:29:55 10° ENE night (unlit)
08 Dec - 23:16:19 10° WSW 23:25:49 84° SSE 23:35:44 10° ENE night (unlit)
09 Dec - 01:21:46 10° W 01:31:23 64° N 01:41:21 10° ENE visible
09 Dec - 03:27:26 10° WNW 03:37:20 77° NNE 03:47:31 10° ESE visible
09 Dec - 05:32:39 10° WNW 05:42:14 53° SW 05:51:59 10° SSE visible
09 Dec - 07:40:40 10° W 07:45:36 15° WSW 07:50:33 10° SSW daylight
09 Dec - 20:51:15 10° S 20:58:56 30° SE 21:06:48 10° ENE visible
09 Dec - 22:53:24 10° SW 23:02:51 81° SSE 23:12:42 10° ENE night (unlit)
10 Dec - 00:58:45 10° W 01:08:20 65° N 01:18:17 10° ENE visible
10 Dec - 03:04:27 10° WNW 03:14:19 75° NNE 03:24:28 10° ESE visible
10 Dec - 05:09:39 10° WNW 05:19:17 56° SW 05:29:06 10° SE visible
10 Dec - 07:17:12 10° W 07:22:43 16° WSW 07:28:17 10° SSW daylight
10 Dec - 20:28:38 10° S 20:36:04 27° SE 20:43:40 10° ENE visible
10 Dec - 22:30:29 10° SW 22:39:53 78° SSE 22:49:41 10° ENE night (unlit)
11 Dec - 00:35:45 10° W 00:45:18 65° N 00:55:14 10° ENE visible
11 Dec - 02:41:27 10° WNW 02:51:17 73° NNE 03:01:24 10° ESE visible
11 Dec - 04:46:38 10° WNW 04:56:20 59° SW 05:06:13 10° SE visible
11 Dec - 06:53:49 10° W 06:59:51 18° SW 07:05:56 10° SSW daylight
11 Dec - 20:06:03 10° S 20:13:12 25° SE 20:20:30 10° ENE visible
11 Dec - 22:07:34 10° SW 22:16:55 75° SSE 22:26:40 10° ENE night (unlit)
12 Dec - 00:12:44 10° W 00:22:15 66° N 00:32:10 10° ENE visible
12 Dec - 02:18:28 10° WNW 02:28:15 71° NNE 02:38:20 10° E visible
12 Dec - 04:23:39 10° WNW 04:33:22 62° SW 04:43:18 10° SE visible
12 Dec - 06:30:31 10° W 06:36:58 19° SW 06:43:30 10° SSW visible
12 Dec - 19:43:30 10° S 19:50:21 23° SE 19:57:19 10° E visible
12 Dec - 21:44:41 10° SW 21:53:59 72° SSE 22:03:38 10° ENE visible
12 Dec - 23:49:44 10° W 23:59:14 67° N 00:09:07 10° ENE night (unlit)
13 Dec - 01:55:29 10° WNW 02:05:13 70° NNE 02:15:17 10° E visible
13 Dec - 04:00:40 10° WNW 04:10:24 65° SW 04:20:23 10° SE visible
13 Dec - 06:07:15 10° W 06:14:06 21° SW 06:21:01 10° S visible
13 Dec - 19:20:59 10° S 19:27:30 22° SE 19:34:07 10° E visible
13 Dec - 21:21:48 10° SW 21:31:03 68° SE 21:40:38 10° ENE visible
13 Dec - 23:26:43 10° W 23:36:12 68° NNW 23:46:04 10° ENE night (unlit)
14 Dec - 01:32:29 10° WNW 01:42:11 69° NNE 01:52:12 10° E visible
14 Dec - 03:37:40 10° WNW 03:47:26 68° SW 03:57:27 10° SE visible
14 Dec - 05:44:02 10° W 05:51:12 23° SW 05:58:29 10° S visible
14 Dec - 18:58:31 10° SSE 19:04:39 20° SE 19:10:51 10° E visible
14 Dec - 20:58:55 10° SW 21:08:06 65° SE 21:17:37 10° ENE visible
14 Dec - 23:03:44 10° W 23:13:11 69° NNW 23:23:02 10° ENE night (unlit)
